User: anonymous   Login
Location: Moonridge Observatory
(39.2268°N, 77.7914°W)
Time: 20:03:19
(UTC-04:00)
Language:

CZ-2C R/B - Orbit

View from above orbital plane
View from above orbital plane
View from above satellite
View from above satellite

Ground track
Ground track

The orbit data is extracted from the following two-line orbital elements,

1 28480U 04046B   17082.90786841 -.00000002 +00000-0 +14167-4 0  9993
2 28480 098.1918 184.6113 0143208 116.0826 355.8011 14.25630584642065
Epoch (UTC): 23 March 2017 21:47:19
Eccentricity: 0.0143208
inclination: 98.1918°
perigee height: 703 km
apogee height: 909 km
right ascension of ascending node: 184.6113°
argument of perigee: 116.0826°
revolutions per day: 14.25630584
mean anomaly at epoch: 355.8011°
orbit number at epoch: 64206

The dashed part of the orbit path shows where the satellite is in the earth's shadow,  

DLR